Weather in Shamilkala

Russia / Republic of Dagestan     42°41′16″N   46°52′15″E
temp.,
°C
wind,
m/s
gust,
m/s
humid.,
%
clouds,
%
prec.,
mm/h
press.,
hPa
HPBL,
m
3 august, tue
tue300:00+16sw326264 0.0 101519
03:00+14wsw33625 0.0 101521
06:00+16wsw33654 0.0 101653
09:00+23ssw114458 0.0 1015589
12:00+26e22310 0.0 10141894
15:00+26ne123049 0.0 10131928
18:00+22wsw445931 0.0 1015158
21:00+17wsw33730 0.0 101741
4 august, wed
wed400:00+16wsw33660 0.0 101733
03:00+15wsw33610 0.0 101727
06:00+16wsw33642 0.0 101850
09:00+23wsw11450 0.0 1017516
12:00+26ene21322 0.0 10152218
15:00+27n223144 0.0 10142663
18:00+21nw3356100 0.0 101652
21:00+20wsw3353100 0.1 101754
5 august, thu
thu500:00+17wsw33703 0.1 101833
03:00+17wsw336713 0.1 101723
06:00+18wsw226410 0.0 101739
09:00+23wsw11475 0.1 1016682
12:00+26e223834 0.0 10152246
15:00+24ene345291 0.2 1015461
18:00+23sse125893 0.6 1015140
21:00+19sw226560 0.6 101615
6 august, fri
fri600:00+17wsw33700 0.0 101625
03:00+16wsw33700 0.0 101525
06:00+17sw33680 0.0 101553
09:00+24sw11430 0.0 1013504
12:00+27ese22310 0.0 10121812
15:00+29ene33310 0.0 10101826
18:00+24ne33480 0.0 101053
21:00+20sw32520 0.0 101115
7 august, sat
sat700:00+18sw44550 0.0 101142
03:00+17wsw44493 0.0 101143
06:00+17sw44530 0.0 101159
09:00+25sw33354 0.0 1008390
12:00+30sse12261 0.0 10071388
15:00+31ene23251 0.0 10061958
18:00+27nne224132 0.0 100717
21:00+21wsw4350100 0.3 101026